BREEZE-M R/B, 37827

Orbit data source: Space-Track

BREEZE-M R/B, 37827 is space debris in HEO originally from a launch on Thu, 29 Sep 2011 UTC launched from the Tyuratam Missile And Space Complex (TTMTR). Debris objects in space refer to the collection of defunct objects orbiting the Earth. Examples of debris include non-operational satellites, rocket bodies, and fragments generated from explosions, collisions, or faulty payload assembly.

Loading next visibility...
Identifier
37827, 2011-054B
Orbit
HEO
Last TLE update
2 days ago
Origin
Manufacturer
Khrunichev
Mission
Spacecraft
Bus & Motor
BRIZ, Unknown motor
Mass
~1,600 kg wet, 1,600 kg dry
Launch date (UTC)
2011-09-29 (14 years ago)
Launch vehicle
Unknown
Launch site
Tyuratam Missile And Space Complex (TTMTR)
Object type
Payload
Rocket body
Debris
Shape & HBR
Cyl, 4 m
Radar Cross Section
14.451 m², Large (>1 m²)

Expand to show TLE details & history

TLE from 2 days ago
0 BREEZE-M R/B
1 37827U 11054B   25127.76787954 -.00000007  00000-0  00000-0 0  9996
2 37827  18.0140 271.5849 5511697 290.8292  17.7363  2.07653679101964
Epoch: 2025-05-07T18:25Z
Definitive object data (Epoch: 2025-05-07T18:25:44.792Z)
Latitude
-1.85845°
Longitude
123.49339°
Altitude
8,055.768 km
Speed
6.314 km/s
True Right ascension
17h 43m 06s
True Declination
-1° 51' 11"
Sunlit
Object was in daylight at TLE epoch
Visualization TLE readout
Latitude
-3.83874°
Longitude
117.04803°
Altitude
7,413.893 km
Speed
6.515 km/s
Apparent Right ascension
16h 12m 23s
Apparent Declination
-17° 04' 46"
Sunlit
Object is in daylight
Visualization observer readout
Local Sidereal Time
00:45:23
Azimuth
281.628° WNW
Elevation
-39.968°
Doppler factor
1
Orbital elements
Apogee altitude
33,882.151 km
Perigee altitude
5,271.16 km
Semi-major axis
25,954.793 km
Eccentricity
0.5511697
Inclination
18.014°
RAAN
271.5849°
Arg. of periapsis
290.8292°
True anomaly
63.07365°
Mean anomaly
17.7363°
Eccentric anomaly
36.53702°
Mean motion
0.51906 °/min
BSTAR
Unknown
Orbital period
693.56 mins
Loading maneuver chart data...
Loading SW <> Apogee altitude chart data...
Loading historical data...
Loading historical data...
Loading historical data...
Loading historical data...
Loading historical data...
Loading historical data...
Loading historical data...
Other satellites on launch #54 in the year 2011 (2011-09-29 UTC)

BREEZE-M R/B Visibility forecast

Observer location: undefined°, undefined°

Span
Click to sort rows by Start time (UTC) header in descending order
Start Az.
Max El. time (UTC)
Max El. Az.
Max El.
End time (UTC)
End Az.
368 mins2025-05-09 17:49:53.780Z267.666° W2025-05-09 19:51:53.780Z266.081° W22.368°2025-05-09 23:57:53.780Z269.618° W
|